Regional Weather Roundup
Issued by NWS

Home | Current Version | Previous Version | Text Only | Print | Product List | Glossary On
Versions: 1 2 3 4 5 6 7 8 9 10 11 12 13 14 15 16 17 18 19 20 21 22 23 24 25 26 27 28 29 30 31 32 33 34 35 36 37 38 39 40 41 42 43 44 45 46 47 48 49 50
000
ASUS43 KMPX 030610
RWRMN
WEATHER ROUNDUP FOR MINNESOTA
NATIONAL WEATHER SERVICE TWIN CITIES/CHANHASSEN MN
100 AM CDT WED SEP 03 2014


NOTE: "FAIR" INDICATES FEW OR NO CLOUDS BELOW 12,000 FEET WITH NO
SIGNIFICANT WEATHER AND/OR OBSTRUCTIONS TO VISIBILITY. N/A MEANS
CURRENT SKY AND/OR WEATHER CONDITIONS ARE NOT AVAILABLE.

MNZ060>063-068>070-030700-
   Twin Cities Metro

CITY           SKY/WX    TMP DP  RH WIND       PRES   REMARKS
TWIN CITIES    FAIR      65  58  78 S3        29.88S
6HR MIN TEMP:  65; 6HR MAX TEMP:  76;

ST PAUL        FAIR      62  58  86 SE5       29.89R
CRYSTAL        FAIR      64  56  75 S5        29.86S
BLAINE         FAIR      64  57  77 S6        29.87S
LAKEVILLE      FAIR      57  55  94 S3        29.90S
EDEN PRAIRIE   FAIR      62  57  83 SW5       29.88S
6HR MIN TEMP:  62; 6HR MAX TEMP:  75;

SOUTH ST PAUL  FAIR      63  58  85 CALM      29.89S
LAKE ELMO      FAIR      57  55  94 S5        29.90R
$$
MNZ001>005-007-008-013>017-022>024-027-028-030700-
   Northwest Minnesota

CITY           SKY/WX    TMP DP  RH WIND       PRES   REMARKS
BEMIDJI        FAIR      58  54  88 CALM      29.77S
HALLOCK        FOG       52  52 100 NE3       29.73S VSB 3/4
ROSEAU         FAIR      54  48  82 CALM      29.75R
WARROAD        FAIR      54  48  82 SW3       29.75S
THIEF RVR FALL FAIR      55  52  88 S5        29.74S
CROOKSTON      FAIR      57  52  82 CALM      29.74S
FOSSTON        CLOUDY    55  54  94 S5        29.77R
DETROIT LAKES  FAIR      63  55  77 SW7       29.81S
MOORHEAD       FAIR      68  57  68 S8        29.76F
PARK RAPIDS    FAIR      61  56  83 SW3       29.80R
MAHNOMEN       CLOUDY    59  56  88 S8        29.76S
$$
MNZ006-009>011-018-025>026-030700-
   North Central Minnesota

CITY           SKY/WX    TMP DP  RH WIND       PRES   REMARKS
BAUDETTE       FAIR      53  51  93 CALM      29.74S
FLAG ISLAND    FAIR      55  52  88 NW8       29.73S
INTL FALLS     FAIR      53  52  96 SW5       29.74S
6HR MIN TEMP:  52; 6HR MAX TEMP:  65; 6HR PCP:  0.39;

WASKISH        FAIR      54  52  94 CALM      29.75S
BIG FORK       FAIR      54  52  94 CALM      29.79S
LONGVILLE      FAIR      61  57  88 SW3       29.79S
GRAND RAPIDS   MOCLDY    59  54  82 SE3       29.82S
CRANE LAKE     LGT RAIN  54  54 100 CALM      29.78S
ORR            FAIR      54  52  94 CALM      29.76F
COOK           MOCLDY    55  54  94 CALM      29.80S
WALKER         CLOUDY    61  56  84 SW7       29.78S
$$
MNZ012-019>021-037-030700-
   Northeast Minnesota

CITY           SKY/WX    TMP DP  RH WIND       PRES   REMARKS
DULUTH         MOCLDY    62  53  72 N10       29.82S
6HR MIN TEMP:  57; 6HR MAX TEMP:  63; 6HR PCP: TRACE;

ELY            LGT RAIN  55  54  94 NW3       29.80F
HIBBING        FAIR      56  53  90 S5        29.82F
EVELETH        FAIR      54  52  94 CALM      29.83F
DULUTH HARBOR  LGT RAIN  63  59  88 S14       29.80F
TWO HARBORS    MOCLDY    55  52  88 CALM      29.81S
SILVER BAY     FAIR      54  54 100 CALM      29.82R
GRAND MARAIS     N/A     57  55  93 VRB3      29.81R
G MARAIS ARPRT RAIN      54  48  82 W5        29.85R
$$
MNZ029>031-032-039>041-046>048-054>057-064-030700-
   West Central Minnesota

CITY           SKY/WX    TMP DP  RH WIND       PRES   REMARKS
FERGUS FALLS   MOCLDY    63  54  72 S7        29.78F
WHEATON        FAIR      59  54  82 S8        29.79S
MORRIS         FAIR      61  55  82 SE7       29.80S
ALEXANDRIA     MOCLDY    65  55  70 S12       29.83S
ELBOW LAKE     CLOUDY    61  56  84 S10       29.79F
WADENA         FAIR      61  54  77 S6        29.80S
GLENWOOD       FAIR      61  55  82 S8        29.84S
APPLETON       FAIR      63  55  77 S6        29.81S
BENSON         FAIR      59  55  88 S7        29.82S
ORTONVILLE     FAIR      59  54  82 S5        29.80S
MADISON        FAIR      61  57  88 S7        29.82S
WILLMAR        FAIR      61  55  82 CALM      29.86F
$$
MNZ033>034-036-042>043-049>051-058-059-030700-
   Central Minnesota

CITY           SKY/WX    TMP DP  RH WIND       PRES   REMARKS
ST CLOUD       FAIR      62  56  80 S5        29.85R
6HR MIN TEMP:  62; 6HR MAX TEMP:  75;

SAUK CENTRE    FAIR      59  55  88 S6        29.84S
PAYNESVILLE    HVY RAIN  60  56  84 S7        29.85F
AITKIN         FAIR      66  55  68 SW6       29.81R
PINE RIVER     FAIR      63  55  77 SW3       29.84S
BRAINERD       FAIR      59  54  83 S8        29.82R
STAPLES        FAIR      61  54  77 S7        29.81S
LONG PRAIRIE   FAIR      61  54  77 S9        29.83S
LITTLE FALLS   FAIR      59  54  82 S3        29.83S
LITCHFIELD     FAIR      64  59  82 S3        29.86S
BUFFALO        FAIR      62  56  80 S3        29.87F
MAPLE LAKE     FAIR      63  58  85 S5        29.87S
$$
MNZ037-044-045-052-053-030700-
   East Central Minnesota

CITY           SKY/WX    TMP DP  RH WIND       PRES   REMARKS
PRINCETON      FAIR      63  57  82 S5        29.85F
MORA           FAIR      61  54  77 SW5       29.86S
CAMBRIDGE      FAIR      63  54  72 S6        29.84S
RUSH CITY      FAIR      61  55  82 CALM      29.86R
MOOSE LAKE     FAIR      55  52  88 SW5       29.81S
HINCKLEY       FAIR      59  55  88 SW6       29.84S
CLOQUET        FAIR      59  54  82 S3        29.82F
MCGREGOR       FAIR      59  55  88 CALM      29.82S
$$
MNZ071>073-080-081-089-090-097-098-030700-
   Southwest Minnesota

CITY           SKY/WX    TMP DP  RH WIND       PRES   REMARKS
MONTEVIDEO     FAIR      63  57  82 SW9       29.84S
GRANITE FALLS  FAIR      60  57  88 S9        29.86S
CANBY          FAIR      66  57  71 S10       29.84S
MARSHALL       FAIR      63  55  77 SW14      29.84F
REDWOOD FALLS  FAIR      63  57  81 S12       29.86F
OLIVIA         FAIR      61  54  77 S6        29.86S
PIPESTONE      FAIR      61  55  82 S8        29.88F
WINDOM         FAIR      63  57  82 S7        29.91S
WORTHINGTON    FAIR      61  57  88 S10       29.92F
JACKSON        FAIR      59  55  88 S8        29.92F
TRACY          FAIR      63  57  82 S12       29.88S
SLAYTON        FAIR      59  57  92 CALM      29.91S
$$
MNZ065>067-074>077-082>085-091>093-030700-
   South Central Minnesota

CITY           SKY/WX    TMP DP  RH WIND       PRES   REMARKS
MANKATO        FAIR      61  54  77 S7        29.91S
NEW ULM        FAIR      59  57  94 S6        29.89S
ST JAMES       FAIR      61  57  88 S7        29.91F
FAIRMONT       FAIR      59  54  82 S6        29.92F
GLENCOE        FAIR      62  56  79 S6        29.87F
FARIBAULT      FAIR      63  55  77 S3        29.92S
OWATONNA       FAIR      61  55  82 S7        29.93R
WASECA         FAIR      55  52  88 S3        29.94S
ALBERT LEA     FAIR      63  59  88 CALM      29.94S
$$
MNZ078>079-086>088-094>096-030700-
   Southeast Minnesota

CITY           SKY/WX    TMP DP  RH WIND       PRES   REMARKS
ROCHESTER      FAIR      57  54  89 S6        29.96R
6HR MIN TEMP:  57; 6HR MAX TEMP:  72;

RED WING       FAIR      57  55  94 CALM      29.90R
STANTON        FAIR      60  56  87 S3        29.90R
DODGE CENTER   FAIR      61  57  88 CALM      29.94S
WINONA         FAIR      59  59 100 CALM      29.93S
AUSTIN         FAIR      59  55  88 S3        29.95R
PRESTON        FAIR      59  59 100 CALM      29.96R
$$
ABBREVIATIONS USED IN REMARKS
   TC - TEMPERATURES IN CELSIUS
  WCI - WIND CHILL INDEX
   HX - HEAT INDEX
  VSB - VISIBILITY
$$


USA.gov is the U.S. government's official web portal to all federal, state and local government web resources and services.